GW4074 Weather Reports


Display with metric or nautical units.
time (UTC)temp
F
wind
direction
speed
MPH
gust
MPH
rain 1hr
in
rain 24hr
in
rain mn
in
humidity
%
barometer
mb
20260904235559 66 344 2.0 3.0 0.00 0.02 0.02 59 1014.7
20260904235059 66 9 3.0 4.0 0.00 0.02 0.02 59 1014.7
20260904234554 67 354 1.0 4.0 0.00 0.02 0.02 57 1014.6
20260904234050 68 29 2.0 3.0 0.00 0.02 0.02 57 1014.8
20260904233545 68 130 0.0 3.0 0.00 0.02 0.02 55 1014.6
20260904233041 68 214 0.0 4.0 0.00 0.02 0.02 55 1014.4
20260904232538 67 37 3.0 4.0 0.00 0.02 0.02 57 1014.4
20260904232034 67 348 2.0 3.0 0.00 0.02 0.02 56 1014.3
20260904231529 66 13 2.0 5.0 0.00 0.02 0.02 57 1014.2
20260904231024 66 31 2.0 4.0 0.00 0.02 0.02 59 1014.4
20260904230523 66 327 2.0 3.0 0.00 0.02 0.02 58 1014.1
20260904230019 66 355 3.0 5.0 0.00 0.02 0.02 58 1014.2
20260904225516 65 10 3.0 4.0 0.00 0.02 0.02 61 1014.3
20260904225015 65 345 4.0 6.0 0.00 0.02 0.02 60 1014.2
20260904224511 65 15 2.0 6.0 0.00 0.02 0.02 60 1014.1
20260904224011 65 39 1.0 5.0 0.00 0.02 0.02 61 1014.0
20260904223510 65 353 4.0 5.0 0.00 0.02 0.02 62 1013.9
20260904223006 64 344 4.0 5.0 0.00 0.02 0.02 63 1014.0
20260904222501 65 358 4.0 6.0 0.00 0.02 0.02 63 1014.1
20260904221956 65 317 5.0 5.0 0.00 0.02 0.02 62 1014.0
20260904221450 66 203 1.0 5.0 0.00 0.02 0.02 61 1014.0
20260904220946 66 354 1.0 3.0 0.00 0.02 0.02 62 1014.0
20260904220445 65 72 0.0 4.0 0.00 0.02 0.02 64 1013.9
20260904215941 67 34 2.0 4.0 0.00 0.02 0.02 60 1014.1
20260904215436 66 162 0.0 3.0 0.00 0.02 0.02 66 1014.4
20260904214932 64 11 3.0 3.0 0.00 0.02 0.02 67 1014.3
20260904214427 63 48 2.0 4.0 0.00 0.02 0.02 67 1014.2
20260904213927 66 260 2.0 3.0 0.00 0.02 0.02 65 1014.4
20260904213421 64 180 0.0 2.0 0.00 0.02 0.02 69 1014.3
20260904212917 64 256 0.0 4.0 0.00 0.02 0.02 68 1014.4
20260904212416 65 156 3.0 3.0 0.00 0.02 0.02 67 1014.2
20260904211912 64 222 1.0 4.0 0.00 0.02 0.02 68 1014.1
20260904211407 65 189 0.0 3.0 0.00 0.02 0.02 66 1014.3
20260904210902 65 175 4.0 4.0 0.00 0.02 0.02 67 1014.2
20260904210401 65 243 0.0 2.0 0.00 0.02 0.02 65 1014.1
20260904205858 65 0 2.0 3.0 0.00 0.02 0.02 68 1013.9
20260904205353 64 32 0.0 3.0 0.00 0.02 0.02 68 1014.1
20260904204850 64 86 2.0 3.0 0.00 0.02 0.02 69 1014.1
20260904204345 64 1 2.0 2.0 0.00 0.02 0.02 69 1013.9
20260904203842 64 344 2.0 3.0 0.00 0.02 0.02 68 1014.0
20260904203338 64 337 3.0 6.0 0.00 0.02 0.02 67 1013.8
20260904202833 64 346 1.0 2.0 0.00 0.02 0.02 68 1013.9
20260904202329 64 0 2.0 2.0 0.00 0.02 0.02 68 1013.8
20260904201825 65 52 3.0 5.0 0.00 0.02 0.02 65 1013.7
20260904201325 63 172 0.0 2.0 0.00 0.02 0.02 70 1013.8
20260904200820 63 1 2.0 4.0 0.00 0.02 0.02 69 1013.8
20260904200319 64 225 0.0 4.0 0.00 0.02 0.02 68 1013.7
20260904195819 66 320 2.0 4.0 0.00 0.02 0.02 63 1014.0
20260904195317 66 39 2.0 3.0 0.00 0.02 0.02 65 1013.8
20260904194812 66 11 2.0 4.0 0.00 0.02 0.02 65 1013.7
20260904194311 66 38 2.0 6.0 0.00 0.02 0.02 64 1013.7
20260904193807 66 347 3.0 4.0 0.00 0.02 0.02 68 1013.9
20260904193302 65 190 2.0 4.0 0.00 0.02 0.02 67 1013.8
20260904192757 64 29 2.0 4.0 0.00 0.02 0.02 71 1013.9
20260904192252 66 308 1.0 3.0 0.00 0.02 0.02 68 1013.7
20260904191749 65 26 2.0 4.0 0.00 0.02 0.02 69 1013.8
20260904191245 65 151 2.0 3.0 0.00 0.02 0.02 70 1013.7
20260904190741 65 43 0.0 4.0 0.00 0.02 0.02 70 1013.8
20260904190237 65 145 3.0 4.0 0.00 0.02 0.02 69 1013.8
20260904185733 65 158 3.0 5.0 0.00 0.02 0.02 67 1013.6
20260904185228 65 54 2.0 4.0 0.00 0.02 0.02 70 1013.7
20260904184726 66 113 2.0 4.0 0.00 0.02 0.02 68 1013.6
20260904184223 66 37 1.0 2.0 0.00 0.02 0.02 71 1013.4
20260904183718 65 61 2.0 3.0 0.00 0.02 0.02 70 1013.5
20260904183213 64 167 3.0 5.0 0.00 0.02 0.02 73 1013.5
20260904182708 64 141 0.0 4.0 0.00 0.02 0.02 70 1013.5
20260904182208 65 177 2.0 4.0 0.00 0.02 0.02 73 1013.6
20260904181704 64 60 0.0 3.0 0.00 0.02 0.02 75 1013.6
20260904181203 64 29 2.0 3.0 0.00 0.02 0.02 71 1013.4
20260904180654 64 156 3.0 4.0 0.00 0.02 0.02 73 1013.7
20260904180149 64 81 1.0 2.0 0.00 0.02 0.02 74 1013.5
20260904175648 62 65 0.0 4.0 0.00 0.02 0.02 76 1013.5
20260904175147 63 66 1.0 4.0 0.00 0.02 0.02 76 1013.4
20260904174641 63 128 2.0 4.0 0.00 0.02 0.02 77 1013.4
20260904174137 62 165 1.0 2.0 0.00 0.02 0.02 80 1013.4
20260904173632 61 36 3.0 3.0 0.00 0.02 0.02 80 1013.5
20260904173123 61 33 2.0 5.0 0.00 0.02 0.02 80 1013.4
20260904172619 62 125 2.0 4.0 0.00 0.02 0.02 78 1013.6
20260904172118 61 116 4.0 4.0 0.00 0.02 0.02 81 1013.3
20260904171613 61 159 3.0 3.0 0.00 0.02 0.02 81 1013.5
20260904171109 61 167 2.0 3.0 0.00 0.02 0.02 79 1013.4
20260904170604 61 141 3.0 3.0 0.00 0.02 0.02 81 1013.5
20260904170100 59 126 2.0 3.0 0.00 0.02 0.02 87 1013.8
20260904165558 58 170 4.0 5.0 0.00 0.02 0.02 86 1013.6
20260904165053 58 119 4.0 4.0 0.00 0.02 0.02 93 1013.6
20260904164548 57 126 2.0 4.0 0.00 0.02 0.02 93 1013.6
20260904164043 56 174 2.0 4.0 0.00 0.02 0.02 93 1013.8
20260904163543 55 152 3.0 4.0 0.00 0.02 0.02 94 1013.7
20260904163038 55 141 2.0 3.0 0.00 0.02 0.02 96 1013.8
20260904162532 55 130 2.0 4.0 0.00 0.02 0.02 96 1013.4
20260904162028 54 111 3.0 3.0 0.00 0.02 0.02 98 1013.6
20260904161523 54 119 2.0 3.0 0.00 0.02 0.02 98 1013.7
20260904161018 54 109 3.0 3.0 0.00 0.02 0.02 98 1013.5
20260904160513 53 122 2.0 2.0 0.00 0.02 0.02 98 1013.6
20260904160009 53 136 2.0 2.0 0.00 0.02 0.02 98 1013.5
20260904155503 53 126 0.0 2.0 0.00 0.02 0.02 98 1013.5
20260904155003 53 145 2.0 3.0 0.00 0.02 0.02 98 1013.5
20260904154456 53 64 2.0 2.0 0.00 0.02 0.02 98 1013.3
20260904153951 53 42 0.0 1.0 0.00 0.02 0.02 98 1013.1
20260904153446 52 103 1.0 2.0 0.00 0.02 0.02 98 1013.0
20260904152943 52 69 2.0 2.0 0.00 0.02 0.02 97 1013.1
20260904152438 52 48 2.0 3.0 0.00 0.02 0.02 96 1013.0
20260904151938 52 46 4.0 5.0 0.00 0.02 0.02 96 1012.9
20260904151433 52 65 2.0 4.0 0.02 0.02 0.02 97 1012.8
20260904150933 52 94 0.0 4.0 0.00 0.02 0.02 97 1012.8
20260904150422 51 13 4.0 4.0 0.02 0.02 0.02 96 1012.8
20260904145920 51 331 3.0 3.0 0.05 0.02 0.02 96 1012.9
20260904145417 51 42 1.0 1.0 0.07 0.01 0.01 96 1012.8
20260904144912 52 124 2.0 3.0 0.05 0.01 0.01 93 1012.8
20260904144407 52 146 3.0 4.0 0.00 0.00 0.00 92 1012.7
20260904143903 53 128 2.0 4.0 0.00 0.00 0.00 90 1012.6
20260904143359 53 109 2.0 3.0 0.00 0.00 0.00 89 1012.7
20260904142855 53 53 2.0 3.0 0.00 0.00 0.00 89 1012.6
20260904142351 52 43 2.0 3.0 0.00 0.00 0.00 90 1012.5
20260904141850 52 122 0.0 2.0 0.00 0.00 0.00 91 1012.5
20260904141346 51 55 1.0 3.0 0.00 0.00 0.00 92 1012.4
20260904140843 51 21 2.0 2.0 0.00 0.00 0.00 92 1012.4
20260904140337 51 8 3.0 3.0 0.00 0.00 0.00 92 1012.4
20260904135836 51 10 2.0 3.0 0.00 0.00 0.00 92 1012.4
20260904135331 50 10 2.0 3.0 0.00 0.00 0.00 93 1012.3
20260904134828 50 335 2.0 3.0 0.00 0.00 0.00 93 1012.3
20260904134327 50 7 2.0 3.0 0.00 0.00 0.00 94 1012.4
20260904133821 50 350 2.0 2.0 0.00 0.00 0.00 94 1012.3
20260904133317 49 10 2.0 3.0 0.00 0.00 0.00 95 1012.3
20260904132817 49 12 2.0 3.0 0.00 0.00 0.00 95 1012.0
20260904132312 50 40 0.0 1.0 0.00 0.00 0.00 94 1012.0
20260904131811 50 140 0.0 2.0 0.00 0.00 0.00 93 1012.0
20260904131308 50 126 2.0 4.0 0.00 0.00 0.00 94 1011.9
20260904130807 51 139 2.0 6.0 0.00 0.00 0.00 93 1011.8
20260904130307 51 16 3.0 3.0 0.00 0.00 0.00 93 1011.9
20260904125803 51 91 0.0 2.0 0.00 0.00 0.00 92 1011.7
20260904125258 52 92 0.0 2.0 0.00 0.00 0.00 91 1011.9
20260904124752 52 110 3.0 4.0 0.00 0.00 0.00 90 1011.7
20260904124249 52 105 1.0 3.0 0.00 0.00 0.00 90 1011.7
20260904123749 52 60 2.0 2.0 0.00 0.00 0.00 89 1011.5
20260904123244 52 87 2.0 2.0 0.00 0.00 0.00 87 1011.4
20260904122740 53 96 1.0 4.0 0.00 0.00 0.00 87 1011.4
20260904122234 54 145 2.0 2.0 0.00 0.00 0.00 86 1011.5
20260904121730 54 13 1.0 2.0 0.00 0.00 0.00 86 1011.3
20260904121225 54 31 2.0 3.0 0.00 0.00 0.00 86 1011.3
20260904120722 53 14 4.0 4.0 0.00 0.00 0.00 86 1011.3
20260904120217 54 358 2.0 3.0 0.00 0.00 0.00 86 1011.4
20260904115712 54 13 3.0 3.0 0.00 0.00 0.00 85 1011.3
20260904115206 53 26 3.0 4.0 0.00 0.00 0.00 86 1011.4
20260904114701 52 18 2.0 3.0 0.00 0.00 0.00 89 1011.4
20260904114200 52 24 2.0 2.0 0.00 0.00 0.00 89 1011.2
20260904113655 53 47 2.0 2.0 0.00 0.00 0.00 88 1011.2
20260904113155 52 22 3.0 4.0 0.00 0.00 0.00 89 1011.1
20260904112650 52 50 3.0 3.0 0.00 0.00 0.00 90 1011.1
20260904112146 52 72 2.0 3.0 0.00 0.00 0.00 90 1011.0
20260904111641 52 61 2.0 4.0 0.00 0.00 0.00 91 1011.1
20260904111136 51 23 2.0 3.0 0.00 0.00 0.00 92 1011.2
20260904110632 51 113 0.0 1.0 0.00 0.00 0.00 94 1011.1
20260904110127 51 113 1.0 1.0 0.00 0.00 0.00 93 1011.2
20260904105626 51 85 1.0 2.0 0.00 0.00 0.00 93 1011.2
20260904105121 51 105 2.0 2.0 0.00 0.00 0.00 93 1011.3
20260904104617 51 106 1.0 2.0 0.00 0.00 0.00 93 1011.3
20260904104112 51 98 1.0 2.0 0.00 0.00 0.00 92 1011.3
20260904103608 52 102 4.0 4.0 0.00 0.00 0.00 91 1011.1
20260904103104 52 84 0.0 4.0 0.00 0.00 0.00 91 1010.8
20260904102600 53 67 0.0 2.0 0.00 0.00 0.00 89 1011.0
20260904102054 53 56 2.0 3.0 0.00 0.00 0.00 87 1010.9
20260904101551 53 46 3.0 4.0 0.00 0.00 0.00 86 1010.5
20260904101047 53 16 2.0 4.0 0.00 0.00 0.00 87 1010.4
20260904100543 52 0 2.0 3.0 0.00 0.00 0.00 89 1010.3
20260904100037 52 357 3.0 4.0 0.00 0.00 0.00 91 1010.4
20260904095532 51 348 2.0 3.0 0.00 0.00 0.00 92 1010.5
20260904095028 51 335 2.0 4.0 0.00 0.00 0.00 92 1010.3
20260904094522 52 14 3.0 3.0 0.00 0.00 0.00 91 1010.5
20260904094017 52 33 2.0 3.0 0.00 0.00 0.00 91 1010.4
20260904093514 51 350 3.0 4.0 0.00 0.00 0.00 92 1010.2
20260904093009 51 44 2.0 4.0 0.00 0.00 0.00 91 1010.4
20260904092505 52 16 2.0 3.0 0.00 0.00 0.00 91 1010.7
20260904092001 52 8 2.0 2.0 0.00 0.00 0.00 91 1010.9
20260904091456 51 58 2.0 2.0 0.00 0.00 0.00 93 1010.9
20260904090950 51 26 0.0 2.0 0.00 0.00 0.00 93 1010.9
20260904090446 51 7 0.0 3.0 0.00 0.00 0.00 94 1010.9
20260904085941 51 19 2.0 2.0 0.00 0.00 0.00 93 1011.0
20260904085436 51 27 0.0 3.0 0.00 0.00 0.00 92 1011.0
20260904084936 52 23 1.0 2.0 0.00 0.00 0.00 91 1011.0
20260904084432 52 31 2.0 4.0 0.00 0.00 0.00 91 1011.1
20260904083928 52 31 2.0 4.0 0.00 0.00 0.00 90 1011.0
20260904083424 52 27 3.0 3.0 0.00 0.00 0.00 91 1011.0
20260904082920 52 34 2.0 4.0 0.00 0.00 0.00 92 1011.2
20260904082420 52 33 2.0 4.0 0.00 0.00 0.00 92 1011.0
20260904081915 52 26 2.0 3.0 0.00 0.00 0.00 92 1010.8
20260904081410 52 35 2.0 3.0 0.00 0.00 0.00 92 1011.0
20260904080906 52 39 2.0 3.0 0.00 0.00 0.00 92 1011.1
20260904080401 52 13 2.0 3.0 0.00 0.00 0.00 93 1011.1
20260904075857 51 4 2.0 2.0 0.00 0.00 0.00 95 1011.1
20260904075353 51 25 1.0 2.0 0.00 0.00 0.00 94 1011.1
20260904074851 51 124 1.0 2.0 0.00 0.00 0.00 93 1011.1
20260904074346 52 109 2.0 3.0 0.00 0.00 0.00 92 1011.3
20260904073842 52 99 2.0 2.0 0.00 0.00 0.00 92 1011.1
20260904073338 53 48 2.0 3.0 0.00 0.00 0.00 91 1011.1
20260904072833 53 52 2.0 3.0 0.00 0.00 0.00 91 1011.2
20260904072332 53 14 2.0 3.0 0.00 0.00 0.00 92 1011.0
20260904071828 52 30 2.0 3.0 0.00 0.00 0.00 93 1011.0
20260904071323 52 58 2.0 3.0 0.00 0.00 0.00 93 1010.9
20260904070818 52 36 2.0 2.0 0.00 0.00 0.00 93 1010.9
20260904070316 52 45 2.0 3.0 0.00 0.00 0.00 93 1011.0
20260904065812 52 19 1.0 2.0 0.00 0.01 0.01 92 1010.9
20260904065308 53 37 2.0 3.0 0.00 0.01 0.01 91 1011.0
20260904064803 53 29 3.0 4.0 0.00 0.01 0.01 91 1010.9
20260904064259 52 31 2.0 3.0 0.00 0.01 0.01 92 1010.9
20260904063755 52 35 2.0 3.0 0.00 0.01 0.01 92 1010.7
20260904063251 52 32 3.0 3.0 0.00 0.01 0.01 91 1010.8
20260904062746 52 23 2.0 3.0 0.00 0.01 0.01 92 1010.8
20260904062242 52 43 2.0 2.0 0.00 0.01 0.01 92 1010.8
20260904061737 52 32 2.0 3.0 0.00 0.01 0.01 92 1010.8
20260904061233 51 21 3.0 3.0 0.00 0.01 0.01 94 1010.8
20260904060730 51 13 2.0 3.0 0.00 0.01 0.01 95 1010.5
20260904060225 51 35 2.0 3.0 0.00 0.01 0.01 95 1010.4
20260904055720 51 34 2.0 3.0 0.00 0.01 0.01 95 1010.7
20260904055215 51 30 3.0 3.0 0.00 0.01 0.01 95 1010.8
20260904054711 51 30 2.0 3.0 0.00 0.01 0.01 96 1010.7
20260904054207 51 31 2.0 3.0 0.00 0.01 0.01 96 1010.9
20260904053702 51 20 2.0 3.0 0.00 0.01 0.01 96 1010.7
20260904053202 51 29 2.0 2.0 0.00 0.01 0.01 96 1010.8
20260904052658 51 22 2.0 2.0 0.00 0.01 0.01 96 1010.8
20260904052154 51 43 2.0 2.0 0.00 0.01 0.01 94 1010.8
20260904051650 52 86 1.0 2.0 0.00 0.01 0.01 93 1010.8
20260904051144 52 107 1.0 2.0 0.00 0.01 0.01 93 1010.9
20260904050640 53 86 1.0 2.0 0.00 0.01 0.01 92 1010.8
20260904050136 53 56 2.0 3.0 0.00 0.01 0.01 93 1010.9
20260904045631 53 32 2.0 3.0 0.00 0.01 0.01 93 1010.9
20260904045131 52 49 1.0 2.0 0.00 0.01 0.01 93 1010.8
20260904044626 52 50 2.0 2.0 0.00 0.01 0.01 93 1010.8
20260904044122 53 35 0.0 1.0 0.00 0.01 0.01 92 1010.8
20260904043619 53 88 1.0 2.0 0.00 0.01 0.01 91 1010.9
20260904043114 53 65 2.0 2.0 0.00 0.01 0.01 91 1010.9
20260904042611 53 37 2.0 3.0 0.00 0.01 0.01 91 1010.9
20260904042106 53 62 1.0 2.0 0.00 0.01 0.01 91 1011.0
20260904041601 53 37 2.0 2.0 0.00 0.01 0.01 92 1010.8
20260904041057 53 99 2.0 2.0 0.00 0.01 0.01 92 1010.8
20260904040557 53 45 2.0 4.0 0.00 0.01 0.01 93 1010.8
20260904040054 52 23 3.0 3.0 0.00 0.01 0.01 93 1010.8
20260904035549 51 39 2.0 2.0 0.00 0.01 0.01 93 1010.8
20260904035048 51 24 2.0 2.0 0.00 0.01 0.01 93 1010.8
20260904034543 52 32 2.0 2.0 0.00 0.01 0.01 92 1010.9
20260904034038 53 29 1.0 2.0 0.00 0.01 0.01 90 1010.7
20260904033534 53 50 2.0 2.0 0.00 0.01 0.01 90 1010.7
20260904033032 53 105 2.0 3.0 0.00 0.01 0.01 90 1010.5
20260904032527 53 41 2.0 2.0 0.00 0.01 0.01 90 1010.4
20260904032026 53 36 2.0 2.0 0.00 0.01 0.01 89 1010.4
20260904031520 53 53 2.0 2.0 0.00 0.01 0.01 89 1010.3
20260904031017 53 37 2.0 2.0 0.00 0.01 0.01 89 1010.5
20260904030512 53 33 1.0 2.0 0.00 0.01 0.01 89 1010.3
20260904030007 54 336 2.0 2.0 0.00 0.01 0.01 89 1010.3
20260904025503 54 359 0.0 1.0 0.00 0.01 0.01 88 1010.1
20260904025003 54 49 1.0 2.0 0.00 0.01 0.01 87 1010.1
20260904024458 55 71 1.0 1.0 0.00 0.01 0.01 86 1010.0
20260904023954 55 325 0.0 2.0 0.00 0.01 0.01 85 1010.1
20260904023450 56 39 2.0 2.0 0.00 0.01 0.01 84 1009.9
20260904022950 56 104 2.0 2.0 0.00 0.01 0.01 82 1010.1
20260904022446 56 116 1.0 2.0 0.00 0.01 0.01 81 1010.0
20260904021942 57 99 1.0 2.0 0.00 0.01 0.01 80 1010.1
20260904021433 57 112 1.0 2.0 0.00 0.01 0.01 80 1009.9
20260904020932 57 80 0.0 1.0 0.00 0.01 0.01 79 1009.8
20260904020422 58 110 0.0 1.0 0.00 0.01 0.01 77 1009.8
20260904015921 58 135 0.0 1.0 0.00 0.01 0.01 76 1009.7
20260904015417 58 54 2.0 2.0 0.00 0.01 0.01 75 1009.9
20260904014915 59 118 0.0 2.0 0.00 0.01 0.01 74 1009.8
20260904014410 59 84 1.0 2.0 0.00 0.01 0.01 73 1009.7
20260904013906 59 53 2.0 2.0 0.00 0.01 0.01 72 1009.9
20260904013402 60 115 0.0 2.0 0.00 0.01 0.01 71 1009.7
20260904012857 61 95 1.0 2.0 0.00 0.01 0.01 70 1009.6
20260904012351 61 128 1.0 1.0 0.00 0.01 0.01 69 1009.6
20260904011851 62 125 0.0 2.0 0.00 0.01 0.01 69 1009.6
20260904011346 63 107 2.0 3.0 0.00 0.01 0.01 67 1009.4
20260904010841 64 111 2.0 4.0 0.00 0.01 0.01 65 1009.3
20260904010338 64 112 2.0 4.0 0.00 0.01 0.01 65 1009.4
20260904005833 63 118 2.0 4.0 0.00 0.01 0.01 67 1009.5
20260904005328 64 147 3.0 4.0 0.00 0.01 0.01 67 1009.5
20260904004823 64 168 2.0 4.0 0.00 0.01 0.01 66 1009.5
20260904004320 64 143 2.0 5.0 0.00 0.01 0.01 67 1009.4
20260904003814 64 171 2.0 4.0 0.00 0.01 0.01 67 1009.4
20260904003311 64 176 1.0 3.0 0.00 0.01 0.01 66 1009.5
20260904002806 63 233 1.0 2.0 0.00 0.01 0.01 69 1009.5
20260904002306 62 170 2.0 4.0 0.00 0.01 0.01 70 1009.5
20260904001801 62 125 2.0 4.0 0.00 0.01 0.01 72 1009.5
20260904001256 63 106 2.0 4.0 0.00 0.01 0.01 70 1009.6
20260904000751 64 102 2.0 3.0 0.00 0.01 0.01 69 1009.5
20260904000245 64 123 2.0 5.0 0.00 0.01 0.01 68 1009.2